Weather History for Window Rock, AZ

Change the Weather History Date:

Thursday, October 18, 2012

  Actual Average Record
Temperature  
Mean Temperature 49 °F -  
Max Temperature 71 °F 65 °F 80 °F (1988)
Min Temperature 28 °F 30 °F 17 °F (1938)
Degree Days  
Heating Degree Days 16    
Moisture  
Dew Point 10 °F    
Average Humidity 24    
Maximum Humidity 47    
Minimum Humidity 9    
Precipitation  
Precipitation 0.00 in - - ()
Sea Level Pressure  
Sea Level Pressure 30.05 in    
Wind  
Wind Speed 5 mph (North)    
Max Wind Speed 17 mph    
Max Gust Speed 24 mph    
Visibility 10 miles    
Events      
Averages and records for this station are not official NWS values.
T = Trace of Precipitation, MM = Missing Value Source: NWS Daily Summary

Daily Weather History Graph

Daily Weather History Graph

Search for Another Location

Airport:

Trip Planner

Search our weather history database for the weather conditions in past years. The results will help you decide how hot, cold, wet, or windy it might be!

Date:

Astronomy

Oct. 18, 2012 Rise Set
Actual Time 7:25 AM MDT 6:36 PM MDT
Civil Twilight 7:00 AM MDT 7:01 PM MDT
Nautical Twilight 6:30 AM MDT 7:31 PM MDT
Astronomical Twilight 6:00 AM MDT 8:01 PM MDT
Moon 11:04 AM MDT (10/18) 9:20 PM MDT (10/18)
Length of Visible Light 12h 01m
Length of Day
11h 10m
Waxing Crescent, 15% of the Moon is Illuminated
Oct 18
Waxing Crescent
Oct 21
First Quarter
Oct 29
Full
Nov 6
Last Quarter
Nov 13
New

Hourly Weather History & Observations

Time (MDT) Temp. Windchill Dew Point Humidity Pressure Visibility Wind Dir Wind Speed Gust Speed Precip Events Conditions
12:53 AM 35.1 °F 32.2 °F 9.0 °F 34% 29.99 in 10.0 mi SSW 3.5 mph - N/A   Clear
1:53 AM 32.0 °F - 10.0 °F 40% 30.02 in 10.0 mi Calm Calm - N/A   Clear
2:53 AM 32.0 °F 28.7 °F 8.1 °F 37% 30.03 in 10.0 mi SSW 3.5 mph - N/A   Clear
3:53 AM 28.9 °F 23.9 °F 9.0 °F 43% 30.04 in 10.0 mi SSW 4.6 mph - N/A   Clear
4:53 AM 30.9 °F - 9.0 °F 40% 30.04 in 10.0 mi Calm Calm - N/A   Clear
5:53 AM 30.9 °F - 10.9 °F 43% 30.06 in 10.0 mi Calm Calm - N/A   Clear
7:53 AM 28.9 °F - 10.9 °F 47% 30.15 in 10.0 mi Calm Calm - N/A   Clear
8:53 AM 41.0 °F - 12.0 °F 31% 30.11 in 10.0 mi Calm Calm - N/A   Clear
9:53 AM 55.0 °F - 7.0 °F 15% 30.06 in 10.0 mi NNE 6.9 mph - N/A   Clear
10:53 AM 61.0 °F - 6.1 °F 11% 30.05 in 10.0 mi North 10.4 mph - N/A   Clear
11:53 AM 64.9 °F - 12.0 °F 13% 30.06 in 10.0 mi North 11.5 mph - N/A   Clear
12:53 PM 66.9 °F - 12.0 °F 12% 30.04 in 10.0 mi North 11.5 mph 18.4 mph N/A   Clear
1:53 PM 69.1 °F - 10.9 °F 11% 30.01 in 10.0 mi North 13.8 mph - N/A   Clear
2:53 PM 70.0 °F - 9.0 °F 9% 30.01 in 10.0 mi North 17.3 mph 24.2 mph N/A   Clear
3:53 PM 69.1 °F - 10.9 °F 11% 30.03 in 10.0 mi NNW 12.7 mph 19.6 mph N/A   Clear
4:53 PM 69.1 °F - 10.9 °F 11% 30.01 in 10.0 mi North 13.8 mph 19.6 mph N/A   Clear
5:53 PM 64.9 °F - 10.0 °F 12% 30.04 in 10.0 mi North 10.4 mph - N/A   Clear
6:53 PM 57.9 °F - 10.0 °F 15% 30.08 in 10.0 mi NNW 3.5 mph - N/A   Clear
7:53 PM 54.0 °F - 10.9 °F 18% 30.12 in 10.0 mi North 5.8 mph - N/A   Clear
8:53 PM 52.0 °F - 10.9 °F 19% 30.08 in 10.0 mi North 9.2 mph - N/A   Clear
9:53 PM 48.0 °F - 10.0 °F 22% 30.04 in 10.0 mi Calm Calm - N/A   Clear
10:53 PM 46.0 °F - 10.9 °F 24% 30.03 in 10.0 mi Calm Calm - N/A   Clear
11:53 PM 44.1 °F 42.5 °F 10.0 °F 25% 30.02 in 10.0 mi NE 3.5 mph - N/A   Clear